TimeCST,TemperatureF,Dew PointF,Humidity,Sea Level PressureIn,VisibilityMPH,Wind Direction,Wind SpeedMPH,Gust SpeedMPH,PrecipitationIn,Events,Conditions,WindDirDegrees,DateUTC
12:07 AM,35.6,32.0,87,30.06,5.0,NNW,15.0,23.0,0.00,Rain,Light Rain,330,2013-11-06 06:07:00
12:21 AM,35.6,32.0,87,30.07,6.0,NNW,16.1,23.0,0.00,,Overcast,330,2013-11-06 06:21:00
12:54 AM,35.1,32.0,89,30.10,7.0,NNW,16.1,23.0,0.00,,Overcast,340,2013-11-06 06:54:00
1:49 AM,35.6,30.2,81,30.08,10.0,NNW,17.3,24.2,0.00,,Overcast,340,2013-11-06 07:49:00
1:54 AM,35.1,30.9,85,30.10,10.0,NNW,12.7,24.2,0.00,,Overcast,340,2013-11-06 07:54:00
2:45 AM,35.6,30.2,81,30.10,10.0,North,11.5,-,N/A,,Overcast,350,2013-11-06 08:45:00
2:54 AM,35.1,30.9,85,30.11,10.0,North,12.7,-,N/A,,Overcast,350,2013-11-06 08:54:00
3:54 AM,34.0,30.9,89,30.12,10.0,North,9.2,-,N/A,,Overcast,350,2013-11-06 09:54:00
4:14 AM,35.6,30.2,81,30.12,10.0,North,9.2,-,N/A,,Overcast,350,2013-11-06 10:14:00
4:54 AM,34.0,30.0,85,30.15,10.0,NNW,9.2,-,N/A,,Overcast,340,2013-11-06 10:54:00
5:07 AM,33.8,30.2,87,30.13,10.0,NNW,6.9,-,N/A,,Overcast,340,2013-11-06 11:07:00
5:54 AM,33.1,30.0,89,30.17,10.0,NNW,6.9,-,N/A,,Mostly Cloudy,330,2013-11-06 11:54:00
6:54 AM,34.0,30.0,85,30.18,10.0,NNW,6.9,-,N/A,,Overcast,330,2013-11-06 12:54:00
7:14 AM,33.8,30.2,87,30.18,10.0,NW,8.1,-,N/A,,Overcast,320,2013-11-06 13:14:00
7:54 AM,34.0,30.0,85,30.22,10.0,NNW,5.8,-,N/A,,Overcast,330,2013-11-06 13:54:00
8:54 AM,36.0,32.0,86,30.24,10.0,NW,8.1,-,N/A,,Overcast,310,2013-11-06 14:54:00
9:54 AM,37.9,32.0,79,30.24,10.0,WNW,5.8,-,N/A,,Overcast,300,2013-11-06 15:54:00
10:54 AM,39.0,32.0,76,30.25,10.0,West,8.1,-,N/A,,Overcast,280,2013-11-06 16:54:00
11:54 AM,39.9,30.9,70,30.25,10.0,WNW,8.1,-,N/A,,Overcast,300,2013-11-06 17:54:00
12:54 PM,41.0,30.9,67,30.24,10.0,WNW,6.9,-,N/A,,Overcast,290,2013-11-06 18:54:00
1:54 PM,42.1,30.9,65,30.24,10.0,West,5.8,-,N/A,,Overcast,270,2013-11-06 19:54:00
2:54 PM,43.0,30.9,62,30.24,10.0,West,8.1,-,N/A,,Scattered Clouds,270,2013-11-06 20:54:00
3:54 PM,44.1,32.0,63,30.23,10.0,Variable,5.8,-,N/A,,Overcast,0,2013-11-06 21:54:00
4:54 PM,42.1,32.0,67,30.23,10.0,SW,3.5,-,N/A,,Overcast,220,2013-11-06 22:54:00
5:54 PM,41.0,32.0,70,30.25,10.0,Calm,Calm,-,N/A,,Overcast,0,2013-11-06 23:54:00
6:54 PM,37.9,32.0,79,30.26,10.0,SW,5.8,-,N/A,,Mostly Cloudy,220,2013-11-07 00:54:00
7:54 PM,35.1,30.0,82,30.26,10.0,WSW,4.6,-,N/A,,Clear,240,2013-11-07 01:54:00
8:54 PM,32.0,28.0,85,30.26,10.0,South,3.5,-,N/A,,Clear,180,2013-11-07 02:54:00
9:54 PM,32.0,28.0,85,30.28,10.0,South,4.6,-,N/A,,Clear,180,2013-11-07 03:54:00
10:54 PM,30.9,28.0,89,30.28,10.0,SSE,5.8,-,N/A,,Clear,150,2013-11-07 04:54:00
11:54 PM,30.9,27.0,85,30.27,10.0,SE,3.5,-,N/A,,Clear,140,2013-11-07 05:54:00